Time,TemperatureF,DewpointF,PressureIn,WindDirection,WindDirectionDegrees,WindSpeedMPH,WindSpeedGustMPH,Humidity,HourlyPrecipIn,Conditions,Clouds,dailyrainin,SoftwareType,DateUTC
2013-05-21 00:02:00,56.9,39.9,29.84,WNW,289,0.0,0.0,53,0.00,,,0.00,Wunderground v.1.15,2013-05-21 06:02:00,
2013-05-21 00:07:00,56.7,39.7,29.84,WNW,289,0.0,0.0,53,0.00,,,0.00,Wunderground v.1.15,2013-05-21 06:07:00,
2013-05-21 00:12:00,56.6,39.7,29.84,WNW,289,0.0,0.0,53,0.00,,,0.00,Wunderground v.1.15,2013-05-21 06:12:00,
2013-05-21 00:17:00,56.6,40.6,29.84,WNW,289,0.0,0.0,55,0.00,,,0.00,Wunderground v.1.15,2013-05-21 06:17:00,
2013-05-21 00:22:00,56.2,40.7,29.85,WNW,289,0.0,0.0,56,0.00,,,0.00,Wunderground v.1.15,2013-05-21 06:22:00,
2013-05-21 00:27:00,56.0,39.6,29.85,WNW,289,0.0,0.0,54,0.00,,,0.00,Wunderground v.1.15,2013-05-21 06:27:00,
2013-05-21 00:32:00,56.3,40.3,29.85,WNW,289,0.0,0.0,55,0.00,,,0.00,Wunderground v.1.15,2013-05-21 06:32:00,
2013-05-21 00:37:00,56.2,40.7,29.85,WNW,289,0.0,0.0,56,0.00,,,0.00,Wunderground v.1.15,2013-05-21 06:37:00,
2013-05-21 00:42:00,55.4,40.4,29.85,WNW,289,0.0,0.0,57,0.00,,,0.00,Wunderground v.1.15,2013-05-21 06:42:00,
2013-05-21 00:47:00,54.2,40.2,29.85,WNW,289,0.0,0.0,59,0.00,,,0.00,Wunderground v.1.15,2013-05-21 06:47:00,
2013-05-21 00:52:00,53.5,40.8,29.85,WNW,289,0.0,0.0,62,0.00,,,0.00,Wunderground v.1.15,2013-05-21 06:52:00,
2013-05-21 00:57:00,52.9,40.2,29.85,WNW,289,0.0,0.0,62,0.00,,,0.00,Wunderground v.1.15,2013-05-21 06:57:00,
2013-05-21 01:02:00,52.2,40.4,29.85,WNW,289,0.0,0.0,64,0.00,,,0.00,Wunderground v.1.15,2013-05-21 07:02:00,
2013-05-21 01:07:00,51.3,40.3,29.87,WNW,289,0.0,0.0,66,0.00,,,0.00,Wunderground v.1.15,2013-05-21 07:07:00,
2013-05-21 01:12:00,50.7,39.7,29.87,WNW,289,0.0,0.0,66,0.00,,,0.00,Wunderground v.1.15,2013-05-21 07:12:00,
2013-05-21 01:17:00,50.2,39.7,29.87,WNW,289,0.0,0.0,67,0.00,,,0.00,Wunderground v.1.15,2013-05-21 07:17:00,
2013-05-21 01:22:00,49.6,39.1,29.90,WNW,289,0.0,0.0,67,0.00,,,0.00,Wunderground v.1.15,2013-05-21 07:22:00,
2013-05-21 01:27:00,48.8,38.7,29.90,WNW,289,0.0,0.0,68,0.00,,,0.00,Wunderground v.1.15,2013-05-21 07:27:00,
2013-05-21 01:32:00,47.9,38.6,29.90,WNW,289,0.0,0.0,70,0.00,,,0.00,Wunderground v.1.15,2013-05-21 07:32:00,
2013-05-21 01:37:00,47.4,38.5,29.91,WNW,289,0.0,0.0,71,0.00,,,0.00,Wunderground v.1.15,2013-05-21 07:37:00,
2013-05-21 01:42:00,47.0,38.4,29.91,WNW,289,0.0,0.0,72,0.00,,,0.00,Wunderground v.1.15,2013-05-21 07:42:00,
2013-05-21 01:47:00,46.4,38.2,29.91,WNW,289,0.0,0.0,73,0.00,,,0.00,Wunderground v.1.15,2013-05-21 07:47:00,
2013-05-21 01:52:00,45.7,37.9,29.91,WNW,289,0.0,0.0,74,0.00,,,0.00,Wunderground v.1.15,2013-05-21 07:52:00,
2013-05-21 01:57:00,45.2,37.7,29.91,WNW,289,0.0,0.0,75,0.00,,,0.00,Wunderground v.1.15,2013-05-21 07:57:00,
2013-05-21 02:02:00,44.8,37.4,29.91,WNW,289,0.0,0.0,75,0.00,,,0.00,Wunderground v.1.15,2013-05-21 08:02:00,
2013-05-21 02:07:00,44.1,37.0,29.91,WNW,289,0.0,0.0,76,0.00,,,0.00,Wunderground v.1.15,2013-05-21 08:07:00,
2013-05-21 02:12:00,43.6,36.5,29.91,WNW,289,0.0,0.0,76,0.00,,,0.00,Wunderground v.1.15,2013-05-21 08:12:00,
2013-05-21 02:17:00,42.9,36.2,29.91,WNW,289,0.0,0.0,77,0.00,,,0.00,Wunderground v.1.15,2013-05-21 08:17:00,
2013-05-21 02:22:00,42.9,36.5,29.91,WNW,289,0.0,0.0,78,0.00,,,0.00,Wunderground v.1.15,2013-05-21 08:22:00,
2013-05-21 02:27:00,42.6,36.2,29.91,WNW,289,0.0,0.0,78,0.00,,,0.00,Wunderground v.1.15,2013-05-21 08:27:00,
2013-05-21 02:32:00,42.3,36.3,29.91,WNW,289,3.0,4.0,79,0.00,,,0.00,Wunderground v.1.15,2013-05-21 08:32:00,
2013-05-21 02:37:00,41.9,35.9,29.90,WNW,289,0.0,4.0,79,0.00,,,0.00,Wunderground v.1.15,2013-05-21 08:37:00,
2013-05-21 02:42:00,42.1,36.4,29.90,WNW,289,0.0,1.0,80,0.00,,,0.00,Wunderground v.1.15,2013-05-21 08:42:00,
2013-05-21 02:47:00,41.8,35.8,29.90,WNW,289,0.0,1.0,79,0.00,,,0.00,Wunderground v.1.15,2013-05-21 08:47:00,
2013-05-21 02:52:00,41.5,35.5,29.90,WNW,289,0.0,0.0,79,0.00,,,0.00,Wunderground v.1.15,2013-05-21 08:52:00,
2013-05-21 02:57:00,42.6,37.2,29.90,WNW,289,0.0,0.0,81,0.00,,,0.00,Wunderground v.1.15,2013-05-21 08:57:00,
2013-05-21 03:02:00,42.9,36.5,29.90,WNW,289,0.0,0.0,78,0.00,,,0.00,Wunderground v.1.15,2013-05-21 09:02:00,
2013-05-21 03:07:00,42.8,37.1,29.90,WNW,289,0.0,0.0,80,0.00,,,0.00,Wunderground v.1.15,2013-05-21 09:07:00,
2013-05-21 03:12:00,42.6,36.5,29.90,WNW,289,0.0,0.0,79,0.00,,,0.00,Wunderground v.1.15,2013-05-21 09:12:00,
2013-05-21 03:17:00,42.2,36.2,29.90,WNW,289,0.0,0.0,79,0.00,,,0.00,Wunderground v.1.15,2013-05-21 09:17:00,
2013-05-21 03:22:00,41.6,35.6,29.91,WNW,289,0.0,0.0,79,0.00,,,0.00,Wunderground v.1.15,2013-05-21 09:22:00,
2013-05-21 03:27:00,41.2,35.5,29.91,WNW,289,0.0,0.0,80,0.00,,,0.00,Wunderground v.1.15,2013-05-21 09:27:00,
2013-05-21 03:32:00,40.8,35.1,29.91,WNW,289,0.0,0.0,80,0.00,,,0.00,Wunderground v.1.15,2013-05-21 09:32:00,
2013-05-21 03:37:00,40.6,35.5,29.91,WNW,289,0.0,0.0,82,0.00,,,0.00,Wunderground v.1.15,2013-05-21 09:37:00,
2013-05-21 03:42:00,40.5,35.4,29.91,WNW,289,0.0,0.0,82,0.00,,,0.00,Wunderground v.1.15,2013-05-21 09:42:00,
2013-05-21 03:47:00,40.3,35.5,29.91,WNW,289,0.0,0.0,83,0.00,,,0.00,Wunderground v.1.15,2013-05-21 09:47:00,
2013-05-21 03:52:00,40.1,35.4,29.93,WNW,289,0.0,0.0,83,0.00,,,0.00,Wunderground v.1.15,2013-05-21 09:52:00,
2013-05-21 03:57:00,39.8,35.1,29.93,WNW,289,0.0,0.0,83,0.00,,,0.00,Wunderground v.1.15,2013-05-21 09:57:00,
2013-05-21 04:02:00,39.8,35.4,29.93,WNW,289,0.0,0.0,84,0.00,,,0.00,Wunderground v.1.15,2013-05-21 10:02:00,
2013-05-21 04:07:00,40.1,35.7,29.93,WNW,289,0.0,0.0,84,0.00,,,0.00,Wunderground v.1.15,2013-05-21 10:07:00,
2013-05-21 04:12:00,39.9,35.5,29.93,WNW,289,0.0,0.0,84,0.00,,,0.00,Wunderground v.1.15,2013-05-21 10:12:00,
2013-05-21 04:17:00,39.6,35.2,29.93,WNW,289,0.0,0.0,84,0.00,,,0.00,Wunderground v.1.15,2013-05-21 10:17:00,
2013-05-21 04:22:00,39.3,34.9,29.95,WNW,289,0.0,0.0,84,0.00,,,0.00,Wunderground v.1.15,2013-05-21 10:22:00,
2013-05-21 04:27:00,39.3,35.2,29.95,WNW,289,0.0,0.0,85,0.00,,,0.00,Wunderground v.1.15,2013-05-21 10:27:00,
2013-05-21 04:32:00,38.9,34.8,29.95,WNW,289,0.0,0.0,85,0.00,,,0.00,Wunderground v.1.15,2013-05-21 10:32:00,
2013-05-21 04:37:00,38.8,34.7,29.96,WNW,289,0.0,0.0,85,0.00,,,0.00,Wunderground v.1.15,2013-05-21 10:37:00,
2013-05-21 04:42:00,38.3,34.2,29.96,WNW,289,0.0,0.0,85,0.00,,,0.00,Wunderground v.1.15,2013-05-21 10:42:00,
2013-05-21 04:47:00,38.3,34.5,29.96,WNW,289,0.0,0.0,86,0.00,,,0.00,Wunderground v.1.15,2013-05-21 10:47:00,
2013-05-21 04:52:00,38.3,34.5,29.96,WNW,289,0.0,0.0,86,0.00,,,0.00,Wunderground v.1.15,2013-05-21 10:52:00,
2013-05-21 04:57:00,38.3,34.5,29.96,WNW,289,0.0,0.0,86,0.00,,,0.00,Wunderground v.1.15,2013-05-21 10:57:00,
2013-05-21 05:02:00,38.5,35.0,29.96,WNW,289,0.0,0.0,87,0.00,,,0.00,Wunderground v.1.15,2013-05-21 11:02:00,
2013-05-21 05:07:00,38.8,35.3,29.95,WNW,289,0.0,0.0,87,0.00,,,0.00,Wunderground v.1.15,2013-05-21 11:07:00,
2013-05-21 05:12:00,38.9,35.4,29.95,WNW,289,0.0,0.0,87,0.00,,,0.00,Wunderground v.1.15,2013-05-21 11:12:00,
2013-05-21 05:17:00,38.9,35.4,29.95,WNW,289,0.0,0.0,87,0.00,,,0.00,Wunderground v.1.15,2013-05-21 11:17:00,
2013-05-21 05:22:00,38.6,35.1,29.90,WNW,289,0.0,0.0,87,0.00,,,0.00,Wunderground v.1.15,2013-05-21 11:22:00,
2013-05-21 05:27:00,38.5,35.0,29.90,WNW,289,0.0,0.0,87,0.00,,,0.00,Wunderground v.1.15,2013-05-21 11:27:00,
2013-05-21 05:32:00,38.3,34.5,29.90,WNW,289,0.0,0.0,86,0.00,,,0.00,Wunderground v.1.15,2013-05-21 11:32:00,
2013-05-21 05:37:00,38.0,34.5,29.92,WNW,289,0.0,0.0,87,0.00,,,0.00,Wunderground v.1.15,2013-05-21 11:37:00,
2013-05-21 05:42:00,37.9,34.4,29.92,WNW,289,0.0,0.0,87,0.00,,,0.00,Wunderground v.1.15,2013-05-21 11:42:00,
2013-05-21 05:47:00,37.9,34.4,29.92,WNW,289,0.0,0.0,87,0.00,,,0.00,Wunderground v.1.15,2013-05-21 11:47:00,
2013-05-21 05:52:00,37.6,34.1,29.93,WNW,289,0.0,0.0,87,0.00,,,0.00,Wunderground v.1.15,2013-05-21 11:52:00,
2013-05-21 05:57:00,37.6,34.1,29.93,WNW,289,0.0,0.0,87,0.00,,,0.00,Wunderground v.1.15,2013-05-21 11:57:00,
2013-05-21 06:02:00,37.3,33.8,29.93,WNW,289,0.0,0.0,87,0.00,,,0.00,Wunderground v.1.15,2013-05-21 12:02:00,
2013-05-21 06:07:00,37.5,34.3,29.93,WNW,289,0.0,0.0,88,0.00,,,0.00,Wunderground v.1.15,2013-05-21 12:07:00,
2013-05-21 06:12:00,37.9,34.7,29.93,WNW,289,0.0,0.0,88,0.00,,,0.00,Wunderground v.1.15,2013-05-21 12:12:00,
2013-05-21 06:17:00,38.5,35.5,29.93,WNW,289,0.0,0.0,89,0.00,,,0.00,Wunderground v.1.15,2013-05-21 12:17:00,
2013-05-21 06:22:00,39.8,37.4,29.93,WNW,289,0.0,0.0,91,0.00,,,0.00,Wunderground v.1.15,2013-05-21 12:22:00,
2013-05-21 06:27:00,41.2,38.5,29.93,WNW,289,0.0,0.0,90,0.00,,,0.00,Wunderground v.1.15,2013-05-21 12:27:00,
2013-05-21 06:32:00,40.5,37.2,29.93,WNW,289,0.0,0.0,88,0.00,,,0.00,Wunderground v.1.15,2013-05-21 12:32:00,
2013-05-21 06:37:00,40.3,37.0,29.93,WNW,289,0.0,0.0,88,0.00,,,0.00,Wunderground v.1.15,2013-05-21 12:37:00,
2013-05-21 06:42:00,40.9,37.6,29.93,WNW,289,0.0,0.0,88,0.00,,,0.00,Wunderground v.1.15,2013-05-21 12:42:00,
2013-05-21 06:47:00,41.8,38.8,29.93,WNW,289,0.0,0.0,89,0.00,,,0.00,Wunderground v.1.15,2013-05-21 12:47:00,
2013-05-21 06:52:00,42.9,39.6,29.92,WNW,289,0.0,0.0,88,0.00,,,0.00,Wunderground v.1.15,2013-05-21 12:52:00,
2013-05-21 06:57:00,43.3,40.0,29.92,WNW,289,0.0,0.0,88,0.00,,,0.00,Wunderground v.1.15,2013-05-21 12:57:00,
2013-05-21 07:02:00,44.2,40.6,29.92,WNW,289,0.0,0.0,87,0.00,,,0.00,Wunderground v.1.15,2013-05-21 13:02:00,
2013-05-21 07:07:00,44.8,41.2,29.91,WNW,289,0.0,0.0,87,0.00,,,0.00,Wunderground v.1.15,2013-05-21 13:07:00,
2013-05-21 07:12:00,45.4,41.8,29.91,WNW,289,0.0,0.0,87,0.00,,,0.00,Wunderground v.1.15,2013-05-21 13:12:00,
2013-05-21 07:17:00,45.8,41.9,29.91,WNW,289,0.0,0.0,86,0.00,,,0.00,Wunderground v.1.15,2013-05-21 13:17:00,
2013-05-21 07:22:00,46.4,42.4,29.92,WNW,289,0.0,0.0,86,0.00,,,0.00,Wunderground v.1.15,2013-05-21 13:22:00,
2013-05-21 07:27:00,47.3,43.3,29.92,WNW,289,0.0,0.0,86,0.00,,,0.00,Wunderground v.1.15,2013-05-21 13:27:00,
2013-05-21 07:33:00,48.3,43.1,29.92,WNW,289,0.0,0.0,82,0.00,,,0.00,Wunderground v.1.15,2013-05-21 13:33:00,
2013-05-21 07:38:00,49.2,43.0,29.90,WNW,289,0.0,0.0,79,0.00,,,0.00,Wunderground v.1.15,2013-05-21 13:38:00,
2013-05-21 07:43:00,50.7,43.1,29.90,WNW,289,0.0,0.0,75,0.00,,,0.00,Wunderground v.1.15,2013-05-21 13:43:00,
2013-05-21 07:48:00,52.0,42.9,29.90,WNW,289,0.0,0.0,71,0.00,,,0.00,Wunderground v.1.15,2013-05-21 13:48:00,
2013-05-21 07:53:00,53.3,42.6,29.88,WNW,289,0.0,0.0,67,0.00,,,0.00,Wunderground v.1.15,2013-05-21 13:53:00,
2013-05-21 07:58:00,54.7,42.3,29.88,WNW,289,0.0,0.0,63,0.00,,,0.00,Wunderground v.1.15,2013-05-21 13:58:00,
2013-05-21 08:03:00,55.7,41.6,29.88,WNW,289,0.0,0.0,59,0.00,,,0.00,Wunderground v.1.15,2013-05-21 14:03:00,
2013-05-21 08:08:00,56.7,41.2,29.87,WNW,289,0.0,0.0,56,0.00,,,0.00,Wunderground v.1.15,2013-05-21 14:08:00,
2013-05-21 08:13:00,57.8,40.8,29.87,WNW,291,0.0,3.0,53,0.00,,,0.00,Wunderground v.1.15,2013-05-21 14:13:00,
2013-05-21 08:18:00,58.3,39.2,29.87,East,82,3.0,7.0,49,0.00,,,0.00,Wunderground v.1.15,2013-05-21 14:18:00,
2013-05-21 08:23:00,58.1,39.0,29.90,East,85,3.0,6.0,49,0.00,,,0.00,Wunderground v.1.15,2013-05-21 14:23:00,
2013-05-21 08:28:00,57.6,38.6,29.90,East,80,3.0,6.0,49,0.00,,,0.00,Wunderground v.1.15,2013-05-21 14:28:00,
2013-05-21 08:33:00,57.2,38.2,29.90,ESE,115,0.0,5.0,49,0.00,,,0.00,Wunderground v.1.15,2013-05-21 14:33:00,
2013-05-21 08:38:00,57.5,39.0,29.90,East,98,0.0,5.0,50,0.00,,,0.00,Wunderground v.1.15,2013-05-21 14:38:00,
2013-05-21 08:43:00,58.1,39.0,29.90,East,90,1.0,5.0,49,0.00,,,0.00,Wunderground v.1.15,2013-05-21 14:43:00,
2013-05-21 08:48:00,58.7,39.6,29.90,East,90,2.0,5.0,49,0.00,,,0.00,Wunderground v.1.15,2013-05-21 14:48:00,
2013-05-21 08:53:00,59.3,38.5,29.89,ESE,103,5.0,6.0,46,0.00,,,0.00,Wunderground v.1.15,2013-05-21 14:53:00,
2013-05-21 08:58:00,59.2,38.4,29.89,ESE,113,0.0,6.0,46,0.00,,,0.00,Wunderground v.1.15,2013-05-21 14:58:00,
2013-05-21 09:03:00,59.5,38.1,29.89,SE,139,4.0,5.0,45,0.00,,,0.00,Wunderground v.1.15,2013-05-21 15:03:00,
2013-05-21 09:08:00,59.8,38.4,29.89,East,92,3.0,6.0,45,0.00,,,0.00,Wunderground v.1.15,2013-05-21 15:08:00,
2013-05-21 09:13:00,60.2,37.6,29.89,ESE,121,4.0,6.0,43,0.00,,,0.00,Wunderground v.1.15,2013-05-21 15:13:00,
2013-05-21 09:18:00,60.4,37.8,29.89,East,84,1.0,7.0,43,0.00,,,0.00,Wunderground v.1.15,2013-05-21 15:18:00,
2013-05-21 09:23:00,60.5,38.5,29.89,SE,143,0.0,4.0,44,0.00,,,0.00,Wunderground v.1.15,2013-05-21 15:23:00,
2013-05-21 09:28:00,61.2,37.9,29.89,East,88,2.0,6.0,42,0.00,,,0.00,Wunderground v.1.15,2013-05-21 15:28:00,
2013-05-21 09:33:00,61.5,38.2,29.89,ESE,119,4.0,7.0,42,0.00,,,0.00,Wunderground v.1.15,2013-05-21 15:33:00,
2013-05-21 09:38:00,62.0,37.4,29.89,East,98,0.0,7.0,40,0.00,,,0.00,Wunderground v.1.15,2013-05-21 15:38:00,
2013-05-21 09:43:00,62.0,36.1,29.89,NE,49,1.0,9.0,38,0.00,,,0.00,Wunderground v.1.15,2013-05-21 15:43:00,
2013-05-21 09:48:00,62.0,37.4,29.89,NE,51,2.0,9.0,40,0.00,,,0.00,Wunderground v.1.15,2013-05-21 15:48:00,
2013-05-21 09:53:00,62.0,37.4,29.89,ENE,77,2.0,4.0,40,0.00,,,0.00,Wunderground v.1.15,2013-05-21 15:53:00,
2013-05-21 09:58:00,62.1,37.5,29.89,NNE,15,2.0,6.0,40,0.00,,,0.00,Wunderground v.1.15,2013-05-21 15:58:00,
2013-05-21 10:03:00,62.0,38.0,29.89,ENE,69,5.0,6.0,41,0.00,,,0.00,Wunderground v.1.15,2013-05-21 16:03:00,
2013-05-21 10:08:00,62.6,37.9,29.88,ESE,105,0.0,6.0,40,0.00,,,0.00,Wunderground v.1.15,2013-05-21 16:08:00,
2013-05-21 10:13:00,62.7,38.0,29.88,NE,45,3.0,10.0,40,0.00,,,0.00,Wunderground v.1.15,2013-05-21 16:13:00,
2013-05-21 10:18:00,62.7,37.4,29.88,ENE,75,6.0,10.0,39,0.00,,,0.00,Wunderground v.1.15,2013-05-21 16:18:00,
2013-05-21 10:23:00,63.4,38.0,29.84,ESE,105,1.0,5.0,39,0.00,,,0.00,Wunderground v.1.15,2013-05-21 16:23:00,
2013-05-21 10:28:00,64.0,37.9,29.84,East,80,3.0,5.0,38,0.00,,,0.00,Wunderground v.1.15,2013-05-21 16:28:00,
2013-05-21 10:33:00,64.3,38.1,29.84,ENE,78,0.0,7.0,38,0.00,,,0.00,Wunderground v.1.15,2013-05-21 16:33:00,
2013-05-21 10:38:00,64.7,37.8,29.83,East,101,2.0,7.0,37,0.00,,,0.00,Wunderground v.1.15,2013-05-21 16:38:00,
2013-05-21 10:43:00,65.0,38.1,29.83,ESE,107,0.0,5.0,37,0.00,,,0.00,Wunderground v.1.15,2013-05-21 16:43:00,
2013-05-21 10:48:00,65.2,37.6,29.83,NE,53,5.0,6.0,36,0.00,,,0.00,Wunderground v.1.15,2013-05-21 16:48:00,
2013-05-21 10:53:00,65.0,36.7,29.82,NE,53,0.0,6.0,35,0.00,,,0.00,Wunderground v.1.15,2013-05-21 16:53:00,
2013-05-21 10:58:00,65.5,34.8,29.82,East,89,0.0,6.0,32,0.00,,,0.00,Wunderground v.1.15,2013-05-21 16:58:00,
2013-05-21 11:03:00,66.6,37.3,29.82,ENE,64,0.0,3.0,34,0.00,,,0.00,Wunderground v.1.15,2013-05-21 17:03:00,
2013-05-21 11:08:00,66.8,37.5,29.81,ENE,61,0.0,8.0,34,0.00,,,0.00,Wunderground v.1.15,2013-05-21 17:08:00,
2013-05-21 11:13:00,66.6,35.0,29.81,ENE,63,3.0,9.0,31,0.00,,,0.00,Wunderground v.1.15,2013-05-21 17:13:00,
2013-05-21 11:18:00,66.8,35.2,29.81,NE,45,3.0,9.0,31,0.00,,,0.00,Wunderground v.1.15,2013-05-21 17:18:00,
2013-05-21 11:23:00,66.6,35.0,29.80,North,10,0.0,3.0,31,0.00,,,0.00,Wunderground v.1.15,2013-05-21 17:23:00,
2013-05-21 11:28:00,67.3,35.6,29.80,North,5,2.0,5.0,31,0.00,,,0.00,Wunderground v.1.15,2013-05-21 17:28:00,
2013-05-21 11:33:00,66.8,32.6,29.80,North,355,0.0,6.0,28,0.00,,,0.00,Wunderground v.1.15,2013-05-21 17:33:00,
2013-05-21 11:38:00,66.6,32.5,29.80,NE,42,5.0,8.0,28,0.00,,,0.00,Wunderground v.1.15,2013-05-21 17:38:00,
2013-05-21 11:43:00,67.1,32.9,29.80,ENE,73,5.0,6.0,28,0.00,,,0.00,Wunderground v.1.15,2013-05-21 17:43:00,
2013-05-21 11:48:00,67.8,33.5,29.80,ENE,59,5.0,7.0,28,0.00,,,0.00,Wunderground v.1.15,2013-05-21 17:48:00,
2013-05-21 11:53:00,67.8,33.5,29.79,ENE,63,0.0,2.0,28,0.00,,,0.00,Wunderground v.1.15,2013-05-21 17:53:00,
2013-05-21 11:58:00,68.1,32.8,29.79,ENE,63,0.0,2.0,27,0.00,,,0.00,Wunderground v.1.15,2013-05-21 17:58:00,
2013-05-21 12:03:00,67.9,33.6,29.79,North,10,1.0,7.0,28,0.00,,,0.00,Wunderground v.1.15,2013-05-21 18:03:00,
2013-05-21 12:08:00,67.9,33.6,29.78,NE,42,0.0,7.0,28,0.00,,,0.00,Wunderground v.1.15,2013-05-21 18:08:00,
2013-05-21 12:13:00,68.1,33.7,29.78,NNW,341,4.0,6.0,28,0.00,,,0.00,Wunderground v.1.15,2013-05-21 18:13:00,
2013-05-21 12:18:00,68.6,34.2,29.78,North,351,3.0,6.0,28,0.00,,,0.00,Wunderground v.1.15,2013-05-21 18:18:00,
2013-05-21 12:23:00,68.9,32.6,29.80,NW,309,7.0,7.0,26,0.00,,,0.00,Wunderground v.1.15,2013-05-21 18:23:00,
2013-05-21 12:28:00,69.3,33.9,29.80,NNW,338,0.0,13.0,27,0.00,,,0.00,Wunderground v.1.15,2013-05-21 18:28:00,
2013-05-21 12:34:00,68.9,33.5,29.80,North,355,4.0,11.0,27,0.00,,,0.00,Wunderground v.1.15,2013-05-21 18:34:00,
2013-05-21 12:39:00,68.8,33.4,29.78,NNE,27,0.0,11.0,27,0.00,,,0.00,Wunderground v.1.15,2013-05-21 18:39:00,
2013-05-21 12:44:00,69.6,35.0,29.78,NW,316,0.0,9.0,28,0.00,,,0.00,Wunderground v.1.15,2013-05-21 18:44:00,
2013-05-21 12:49:00,70.4,34.8,29.78,NNW,327,0.0,9.0,27,0.00,,,0.00,Wunderground v.1.15,2013-05-21 18:49:00,
2013-05-21 12:54:00,71.3,34.6,29.77,WNW,294,2.0,11.0,26,0.00,,,0.00,Wunderground v.1.15,2013-05-21 18:54:00,
2013-05-21 12:59:00,71.8,36.0,29.77,WSW,242,0.0,11.0,27,0.00,,,0.00,Wunderground v.1.15,2013-05-21 18:59:00,
2013-05-21 13:04:00,72.0,37.1,29.77,North,360,3.0,5.0,28,0.00,,,0.00,Wunderground v.1.15,2013-05-21 19:04:00,
2013-05-21 13:09:00,72.1,35.3,29.76,North,5,7.0,7.0,26,0.00,,,0.00,Wunderground v.1.15,2013-05-21 19:09:00,
2013-05-21 13:14:00,71.6,34.9,29.76,North,355,0.0,11.0,26,0.00,,,0.00,Wunderground v.1.15,2013-05-21 19:14:00,
2013-05-21 13:19:00,71.5,34.8,29.76,NNE,28,6.0,11.0,26,0.00,,,0.00,Wunderground v.1.15,2013-05-21 19:19:00,
2013-05-21 13:24:00,70.8,34.2,29.79,NNE,13,0.0,6.0,26,0.00,,,0.00,Wunderground v.1.15,2013-05-21 19:24:00,
2013-05-21 13:29:00,70.8,34.2,29.79,ENE,67,4.0,6.0,26,0.00,,,0.00,Wunderground v.1.15,2013-05-21 19:29:00,
2013-05-21 13:34:00,70.9,34.3,29.79,East,101,0.0,3.0,26,0.00,,,0.00,Wunderground v.1.15,2013-05-21 19:34:00,
2013-05-21 13:39:00,72.0,35.2,29.78,NE,54,3.0,5.0,26,0.00,,,0.00,Wunderground v.1.15,2013-05-21 19:39:00,
2013-05-21 13:44:00,72.8,33.9,29.78,NNE,18,4.0,10.0,24,0.00,,,0.00,Wunderground v.1.15,2013-05-21 19:44:00,
2013-05-21 13:49:00,72.5,32.6,29.78,NNW,344,6.0,11.0,23,0.00,,,0.00,Wunderground v.1.15,2013-05-21 19:49:00,
2013-05-21 13:54:00,73.0,33.0,29.76,North,5,2.0,14.0,23,0.00,,,0.00,Wunderground v.1.15,2013-05-21 19:54:00,
2013-05-21 13:59:00,72.8,32.8,29.76,North,351,10.0,14.0,23,0.00,,,0.00,Wunderground v.1.15,2013-05-21 19:59:00,
2013-05-21 14:04:00,73.2,33.2,29.76,NW,321,0.0,10.0,23,0.00,,,0.00,Wunderground v.1.15,2013-05-21 20:04:00,
2013-05-21 14:09:00,74.2,32.9,29.74,NW,309,7.0,12.0,22,0.00,,,0.00,Wunderground v.1.15,2013-05-21 20:09:00,
2013-05-21 14:14:00,75.3,32.6,29.74,NNW,336,7.0,11.0,21,0.00,,,0.00,Wunderground v.1.15,2013-05-21 20:14:00,
2013-05-21 14:19:00,75.6,32.9,29.74,NW,306,2.0,13.0,21,0.00,,,0.00,Wunderground v.1.15,2013-05-21 20:19:00,
2013-05-21 14:24:00,75.4,33.9,29.73,NNE,13,6.0,11.0,22,0.00,,,0.00,Wunderground v.1.15,2013-05-21 20:24:00,
2013-05-21 14:29:00,75.4,32.7,29.73,North,351,7.0,12.0,21,0.00,,,0.00,Wunderground v.1.15,2013-05-21 20:29:00,
2013-05-21 14:34:00,75.3,31.4,29.73,NNE,13,3.0,16.0,20,0.00,,,0.00,Wunderground v.1.15,2013-05-21 20:34:00,
2013-05-21 14:39:00,75.3,33.8,29.74,WNW,302,2.0,16.0,22,0.00,,,0.00,Wunderground v.1.15,2013-05-21 20:39:00,
2013-05-21 14:44:00,75.4,32.7,29.74,West,267,3.0,10.0,21,0.00,,,0.00,Wunderground v.1.15,2013-05-21 20:44:00,
2013-05-21 14:49:00,75.4,32.7,29.74,NW,319,4.0,10.0,21,0.00,,,0.00,Wunderground v.1.15,2013-05-21 20:49:00,
2013-05-21 14:54:00,75.1,32.5,29.73,NNE,27,0.0,9.0,21,0.00,,,0.00,Wunderground v.1.15,2013-05-21 20:54:00,
2013-05-21 14:59:00,74.6,33.2,29.73,NNW,348,10.0,11.0,22,0.00,,,0.00,Wunderground v.1.15,2013-05-21 20:59:00,
2013-05-21 15:04:00,73.9,33.7,29.73,NNW,344,6.0,11.0,23,0.00,,,0.00,Wunderground v.1.15,2013-05-21 21:04:00,
2013-05-21 15:09:00,73.9,32.6,29.73,NE,38,6.0,11.0,22,0.00,,,0.00,Wunderground v.1.15,2013-05-21 21:09:00,
2013-05-21 15:14:00,73.7,32.5,29.73,North,355,2.0,14.0,22,0.00,,,0.00,Wunderground v.1.15,2013-05-21 21:14:00,
2013-05-21 15:19:00,73.7,32.5,29.73,North,355,0.0,14.0,22,0.00,,,0.00,Wunderground v.1.15,2013-05-21 21:19:00,
2013-05-21 15:24:00,74.4,33.1,29.73,WNW,283,5.0,10.0,22,0.00,,,0.00,Wunderground v.1.15,2013-05-21 21:24:00,
2013-05-21 15:29:00,75.3,31.4,29.73,NW,314,5.0,15.0,20,0.00,,,0.00,Wunderground v.1.15,2013-05-21 21:29:00,
2013-05-21 15:34:00,75.4,32.7,29.73,North,350,3.0,15.0,21,0.00,,,0.00,Wunderground v.1.15,2013-05-21 21:34:00,
2013-05-21 15:39:00,75.6,31.7,29.71,North,5,9.0,15.0,20,0.00,,,0.00,Wunderground v.1.15,2013-05-21 21:39:00,
2013-05-21 15:44:00,75.8,31.8,29.71,NW,325,5.0,12.0,20,0.00,,,0.00,Wunderground v.1.15,2013-05-21 21:44:00,
2013-05-21 15:49:00,75.8,33.1,29.71,NW,306,7.0,15.0,21,0.00,,,0.00,Wunderground v.1.15,2013-05-21 21:49:00,
2013-05-21 15:54:00,75.6,32.9,29.71,NNW,334,9.0,17.0,21,0.00,,,0.00,Wunderground v.1.15,2013-05-21 21:54:00,
2013-05-21 15:59:00,75.4,32.7,29.71,WNW,291,5.0,17.0,21,0.00,,,0.00,Wunderground v.1.15,2013-05-21 21:59:00,
2013-05-21 16:04:00,76.0,32.0,29.71,NNW,327,7.0,13.0,20,0.00,,,0.00,Wunderground v.1.15,2013-05-21 22:04:00,
2013-05-21 16:09:00,76.5,31.1,29.70,North,355,4.0,13.0,19,0.00,,,0.00,Wunderground v.1.15,2013-05-21 22:09:00,
2013-05-21 16:14:00,76.5,29.8,29.70,NNW,329,9.0,14.0,18,0.00,,,0.00,Wunderground v.1.15,2013-05-21 22:14:00,
2013-05-21 16:19:00,77.2,31.7,29.70,NW,320,6.0,14.0,19,0.00,,,0.00,Wunderground v.1.15,2013-05-21 22:19:00,
2013-05-21 16:24:00,77.6,30.7,29.69,West,279,6.0,12.0,18,0.00,,,0.00,Wunderground v.1.15,2013-05-21 22:24:00,
2013-05-21 16:29:00,77.7,30.8,29.69,SW,222,3.0,12.0,18,0.00,,,0.00,Wunderground v.1.15,2013-05-21 22:29:00,
2013-05-21 16:34:00,77.7,29.4,29.69,WSW,241,1.0,10.0,17,0.00,,,0.00,Wunderground v.1.15,2013-05-21 22:34:00,
2013-05-21 16:39:00,77.4,30.5,29.69,SSW,200,3.0,10.0,18,0.00,,,0.00,Wunderground v.1.15,2013-05-21 22:39:00,
2013-05-21 16:44:00,76.7,31.3,29.69,SSW,194,6.0,11.0,19,0.00,,,0.00,Wunderground v.1.15,2013-05-21 22:44:00,
2013-05-21 16:49:00,76.8,30.1,29.69,WSW,238,0.0,11.0,18,0.00,,,0.00,Wunderground v.1.15,2013-05-21 22:49:00,
2013-05-21 16:54:00,77.6,29.3,29.67,SW,236,3.0,4.0,17,0.00,,,0.00,Wunderground v.1.15,2013-05-21 22:54:00,
2013-05-21 16:59:00,78.3,29.9,29.67,WNW,298,2.0,10.0,17,0.00,,,0.00,Wunderground v.1.15,2013-05-21 22:59:00,
2013-05-21 17:04:00,78.6,30.1,29.67,West,277,6.0,11.0,17,0.00,,,0.00,Wunderground v.1.15,2013-05-21 23:04:00,
2013-05-21 17:09:00,78.1,28.2,29.66,West,265,4.0,12.0,16,0.00,,,0.00,Wunderground v.1.15,2013-05-21 23:09:00,
2013-05-21 17:14:00,77.4,30.5,29.66,WNW,287,4.0,8.0,18,0.00,,,0.00,Wunderground v.1.15,2013-05-21 23:14:00,
2013-05-21 17:19:00,77.6,29.3,29.66,NW,325,0.0,8.0,17,0.00,,,0.00,Wunderground v.1.15,2013-05-21 23:19:00,
2013-05-21 17:24:00,78.1,29.7,29.67,NW,324,0.0,3.0,17,0.00,,,0.00,Wunderground v.1.15,2013-05-21 23:24:00,
2013-05-21 17:29:00,78.6,30.1,29.67,WSW,242,3.0,6.0,17,0.00,,,0.00,Wunderground v.1.15,2013-05-21 23:29:00,
2013-05-21 17:34:00,78.5,30.0,29.67,SSW,205,3.0,6.0,17,0.00,,,0.00,Wunderground v.1.15,2013-05-21 23:34:00,
2013-05-21 17:39:00,77.9,28.1,29.67,SW,215,0.0,7.0,16,0.00,,,0.00,Wunderground v.1.15,2013-05-21 23:39:00,
2013-05-21 17:44:00,78.3,31.3,29.67,NW,307,5.0,6.0,18,0.00,,,0.00,Wunderground v.1.15,2013-05-21 23:44:00,
2013-05-21 17:49:00,78.6,30.1,29.67,NNW,329,5.0,9.0,17,0.00,,,0.00,Wunderground v.1.15,2013-05-21 23:49:00,
2013-05-21 17:54:00,78.3,29.9,29.66,NNW,348,0.0,7.0,17,0.00,,,0.00,Wunderground v.1.15,2013-05-21 23:54:00,
2013-05-21 17:59:00,77.6,29.3,29.66,NE,36,0.0,7.0,17,0.00,,,0.00,Wunderground v.1.15,2013-05-21 23:59:00,
2013-05-21 18:04:00,77.2,27.5,29.66,NE,42,6.0,6.0,16,0.00,,,0.00,Wunderground v.1.15,2013-05-22 00:04:00,
2013-05-21 18:09:00,77.4,27.7,29.67,NW,326,0.0,6.0,16,0.00,,,0.00,Wunderground v.1.15,2013-05-22 00:09:00,
2013-05-21 18:14:00,77.4,26.1,29.67,SSE,153,5.0,9.0,15,0.00,,,0.00,Wunderground v.1.15,2013-05-22 00:14:00,
2013-05-21 18:19:00,77.4,26.1,29.67,SSE,153,0.0,9.0,15,0.00,,,0.00,Wunderground v.1.15,2013-05-22 00:19:00,
2013-05-21 18:24:00,77.7,26.3,29.63,SSE,156,0.0,2.0,15,0.00,,,0.00,Wunderground v.1.15,2013-05-22 00:24:00,
2013-05-21 18:29:00,77.6,24.6,29.63,South,170,5.0,13.0,14,0.00,,,0.00,Wunderground v.1.15,2013-05-22 00:29:00,
2013-05-21 18:34:00,76.8,22.2,29.63,South,178,0.0,7.0,13,0.00,,,0.00,Wunderground v.1.15,2013-05-22 00:34:00,
2013-05-21 18:39:00,77.0,25.8,29.63,SSW,207,2.0,7.0,15,0.00,,,0.00,Wunderground v.1.15,2013-05-22 00:39:00,
2013-05-21 18:44:00,77.0,24.1,29.63,SW,224,0.0,6.0,14,0.00,,,0.00,Wunderground v.1.15,2013-05-22 00:44:00,
2013-05-21 18:49:00,76.7,23.9,29.63,SW,215,1.0,6.0,14,0.00,,,0.00,Wunderground v.1.15,2013-05-22 00:49:00,
2013-05-21 18:54:00,76.1,26.6,29.63,WSW,244,1.0,7.0,16,0.00,,,0.00,Wunderground v.1.15,2013-05-22 00:54:00,
2013-05-21 18:59:00,76.0,25.0,29.63,SW,235,4.0,9.0,15,0.00,,,0.00,Wunderground v.1.15,2013-05-22 00:59:00,
2013-05-21 19:04:00,75.4,22.8,29.63,West,266,6.0,10.0,14,0.00,,,0.00,Wunderground v.1.15,2013-05-22 01:04:00,
2013-05-21 19:09:00,74.6,23.9,29.63,West,265,0.0,10.0,15,0.00,,,0.00,Wunderground v.1.15,2013-05-22 01:09:00,
2013-05-21 19:14:00,73.7,26.1,29.63,West,264,1.0,3.0,17,0.00,,,0.00,Wunderground v.1.15,2013-05-22 01:14:00,
2013-05-21 19:19:00,73.0,24.1,29.63,West,264,0.0,4.0,16,0.00,,,0.00,Wunderground v.1.15,2013-05-22 01:19:00,
2013-05-21 19:25:00,73.2,24.3,29.58,West,264,0.0,2.0,16,0.00,,,0.00,Wunderground v.1.15,2013-05-22 01:25:00,
2013-05-21 19:30:00,74.0,24.9,29.58,West,264,1.0,1.0,16,0.00,,,0.00,Wunderground v.1.15,2013-05-22 01:30:00,
2013-05-21 19:35:00,74.7,27.0,29.58,West,265,0.0,4.0,17,0.00,,,0.00,Wunderground v.1.15,2013-05-22 01:35:00,
2013-05-21 19:40:00,74.6,25.4,29.58,West,260,4.0,4.0,16,0.00,,,0.00,Wunderground v.1.15,2013-05-22 01:40:00,
2013-05-21 19:45:00,74.0,27.8,29.58,West,260,1.0,4.0,18,0.00,,,0.00,Wunderground v.1.15,2013-05-22 01:45:00,
2013-05-21 19:50:00,73.3,25.8,29.58,SW,219,5.0,9.0,17,0.00,,,0.00,Wunderground v.1.15,2013-05-22 01:50:00,
2013-05-21 19:55:00,72.8,25.4,29.59,SW,234,0.0,9.0,17,0.00,,,0.00,Wunderground v.1.15,2013-05-22 01:55:00,
2013-05-21 20:00:00,72.5,26.5,29.59,SW,234,1.0,2.0,18,0.00,,,0.00,Wunderground v.1.15,2013-05-22 02:00:00,
2013-05-21 20:05:00,72.0,27.5,29.59,SW,234,0.0,3.0,19,0.00,,,0.00,Wunderground v.1.15,2013-05-22 02:05:00,
2013-05-21 20:10:00,71.1,28.0,29.59,WSW,245,3.0,3.0,20,0.00,,,0.00,Wunderground v.1.15,2013-05-22 02:10:00,
2013-05-21 20:15:00,70.3,27.3,29.59,West,259,0.0,12.0,20,0.00,,,0.00,Wunderground v.1.15,2013-05-22 02:15:00,
2013-05-21 20:20:00,69.8,28.1,29.59,WSW,252,0.0,1.0,21,0.00,,,0.00,Wunderground v.1.15,2013-05-22 02:20:00,
2013-05-21 20:25:00,68.9,28.5,29.59,WSW,251,0.0,1.0,22,0.00,,,0.00,Wunderground v.1.15,2013-05-22 02:25:00,
2013-05-21 20:30:00,68.3,26.8,29.59,SW,229,0.0,0.0,21,0.00,,,0.00,Wunderground v.1.15,2013-05-22 02:30:00,
2013-05-21 20:35:00,67.6,29.5,29.59,SW,229,0.0,0.0,24,0.00,,,0.00,Wunderground v.1.15,2013-05-22 02:35:00,
2013-05-21 20:40:00,66.3,27.4,29.61,SW,229,0.0,0.0,23,0.00,,,0.00,Wunderground v.1.15,2013-05-22 02:40:00,
2013-05-21 20:45:00,64.8,29.1,29.61,SW,229,0.0,0.0,26,0.00,,,0.00,Wunderground v.1.15,2013-05-22 02:45:00,
2013-05-21 20:50:00,63.4,29.7,29.61,SW,229,0.0,0.0,28,0.00,,,0.00,Wunderground v.1.15,2013-05-22 02:50:00,
2013-05-21 20:55:00,62.3,30.4,29.63,SW,229,0.0,0.0,30,0.00,,,0.00,Wunderground v.1.15,2013-05-22 02:55:00,
2013-05-21 21:00:00,61.3,31.9,29.63,SW,229,0.0,0.0,33,0.00,,,0.00,Wunderground v.1.15,2013-05-22 03:00:00,
2013-05-21 21:05:00,60.2,33.8,29.63,SW,229,0.0,0.0,37,0.00,,,0.00,Wunderground v.1.15,2013-05-22 03:05:00,
2013-05-21 21:10:00,59.5,32.5,29.64,SW,229,0.0,0.0,36,0.00,,,0.00,Wunderground v.1.15,2013-05-22 03:10:00,
2013-05-21 21:15:00,58.9,30.6,29.64,SW,229,0.0,0.0,34,0.00,,,0.00,Wunderground v.1.15,2013-05-22 03:15:00,
2013-05-21 21:20:00,58.3,31.4,29.64,SW,229,0.0,0.0,36,0.00,,,0.00,Wunderground v.1.15,2013-05-22 03:20:00,
2013-05-21 21:25:00,57.8,34.2,29.64,SW,229,0.0,0.0,41,0.00,,,0.00,Wunderground v.1.15,2013-05-22 03:25:00,
2013-05-21 21:30:00,57.3,33.2,29.64,SW,229,0.0,0.0,40,0.00,,,0.00,Wunderground v.1.15,2013-05-22 03:30:00,
2013-05-21 21:35:00,57.0,32.3,29.64,SW,229,0.0,0.0,39,0.00,,,0.00,Wunderground v.1.15,2013-05-22 03:35:00,
2013-05-21 21:40:00,56.7,35.0,29.64,SW,229,0.0,0.0,44,0.00,,,0.00,Wunderground v.1.15,2013-05-22 03:40:00,
2013-05-21 21:45:00,56.5,33.7,29.64,SW,229,0.0,0.0,42,0.00,,,0.00,Wunderground v.1.15,2013-05-22 03:45:00,
2013-05-21 21:50:00,56.6,32.5,29.64,SW,229,0.0,0.0,40,0.00,,,0.00,Wunderground v.1.15,2013-05-22 03:50:00,
2013-05-21 21:55:00,57.6,29.4,29.65,SW,229,0.0,0.0,34,0.00,,,0.00,Wunderground v.1.15,2013-05-22 03:55:00,
2013-05-21 22:00:00,59.0,34.7,29.65,SW,229,0.0,0.0,40,0.00,,,0.00,Wunderground v.1.15,2013-05-22 04:00:00,
2013-05-21 22:01:00,59.2,34.9,29.65,SW,229,0.0,0.0,40,0.00,,,0.00,Wunderground v.1.15,2013-05-22 04:01:00,
2013-05-21 22:06:00,58.7,31.8,29.65,SSW,203,1.0,5.0,36,0.00,,,0.00,Wunderground v.1.15,2013-05-22 04:06:00,
2013-05-21 22:11:00,59.3,35.6,29.64,SSW,203,0.0,1.0,41,0.00,,,0.00,Wunderground v.1.15,2013-05-22 04:11:00,
2013-05-21 22:16:00,58.7,35.0,29.64,SSW,203,0.0,1.0,41,0.00,,,0.00,Wunderground v.1.15,2013-05-22 04:16:00,
2013-05-21 22:21:00,58.6,35.0,29.64,SSW,203,0.0,0.0,41,0.00,,,0.00,Wunderground v.1.15,2013-05-22 04:21:00,
2013-05-21 22:26:00,58.3,36.5,29.61,SSW,203,0.0,0.0,44,0.00,,,0.00,Wunderground v.1.15,2013-05-22 04:26:00,
2013-05-21 22:31:00,57.5,35.2,29.61,SSW,203,0.0,0.0,43,0.00,,,0.00,Wunderground v.1.15,2013-05-22 04:31:00,
2013-05-21 22:36:00,56.9,33.4,29.61,SSW,203,0.0,0.0,41,0.00,,,0.00,Wunderground v.1.15,2013-05-22 04:36:00,
2013-05-21 22:41:00,56.6,34.9,29.62,SSW,203,0.0,0.0,44,0.00,,,0.00,Wunderground v.1.15,2013-05-22 04:41:00,
2013-05-21 22:46:00,56.5,33.1,29.62,SSW,203,0.0,0.0,41,0.00,,,0.00,Wunderground v.1.15,2013-05-22 04:46:00,
2013-05-21 22:51:00,56.2,35.1,29.63,SSW,203,0.0,0.0,45,0.00,,,0.00,Wunderground v.1.15,2013-05-22 04:51:00,
2013-05-21 22:56:00,55.6,34.0,29.63,SSW,203,0.0,0.0,44,0.00,,,0.00,Wunderground v.1.15,2013-05-22 04:56:00,
2013-05-21 23:01:00,55.3,35.9,29.63,SSW,203,0.0,0.0,48,0.00,,,0.00,Wunderground v.1.15,2013-05-22 05:01:00,
2013-05-21 23:06:00,54.7,34.3,29.63,SSW,203,0.0,0.0,46,0.00,,,0.00,Wunderground v.1.15,2013-05-22 05:06:00,
2013-05-21 23:11:00,54.4,34.6,29.63,SSW,203,0.0,0.0,47,0.00,,,0.00,Wunderground v.1.15,2013-05-22 05:11:00,
2013-05-21 23:16:00,53.9,34.6,29.63,SSW,203,0.0,0.0,48,0.00,,,0.00,Wunderground v.1.15,2013-05-22 05:16:00,
2013-05-21 23:21:00,53.5,34.8,29.63,SSW,203,0.0,0.0,49,0.00,,,0.00,Wunderground v.1.15,2013-05-22 05:21:00,
2013-05-21 23:26:00,53.1,34.4,29.63,SSW,203,0.0,0.0,49,0.00,,,0.00,Wunderground v.1.15,2013-05-22 05:26:00,
2013-05-21 23:31:00,52.9,34.2,29.63,SSW,203,0.0,0.0,49,0.00,,,0.00,Wunderground v.1.15,2013-05-22 05:31:00,
2013-05-21 23:36:00,52.5,33.9,29.63,SSW,203,0.0,0.0,49,0.00,,,0.00,Wunderground v.1.15,2013-05-22 05:36:00,
2013-05-21 23:41:00,52.0,33.4,29.63,SSW,203,0.0,0.0,49,0.00,,,0.00,Wunderground v.1.15,2013-05-22 05:41:00,
2013-05-21 23:46:00,51.7,34.1,29.63,SSW,203,0.0,0.0,51,0.00,,,0.00,Wunderground v.1.15,2013-05-22 05:46:00,
2013-05-21 23:51:00,51.3,33.8,29.64,SSW,203,0.0,0.0,51,0.00,,,0.00,Wunderground v.1.15,2013-05-22 05:51:00,
2013-05-21 23:56:00,51.1,33.6,29.64,SSW,203,0.0,0.0,51,0.00,,,0.00,Wunderground v.1.15,2013-05-22 05:56:00,